{"data":{"norad_id":81749,"intl_designator":"","name":"UNKNOWN","alt_names":[],"object_type":"UNKNOWN","status":"UNKNOWN","operator":null,"country":null,"launch_date":null,"launch_site_code":null,"launch_vehicle":null,"mission":null,"orbit_class":"UNKNOWN","rcs_meters":null,"size_class":null,"mass_kg":null,"dimensions":null,"purposes":[],"wikipedia_slug":null,"has_3d_model":false,"image_url":null,"decayed_at":null,"tle_current":{"epoch":"2026-09-15T05:23:12.282144Z","epoch_age_seconds":470540,"freshness":"STALE","line1":"1 81749U          26258.22444771  .00000096  00000+0  45389-3 0  9999","line2":"2 81749  99.6670 253.3600 0369075 325.1570  93.5667 12.77688898597315","mean_motion":12.77688898,"eccentricity":0.0369075,"inclination_deg":99.667,"raan_deg":253.36,"arg_perigee_deg":325.157,"mean_anomaly_deg":93.5667,"bstar":0.00045389,"rev_number":59731,"period_min":112.70349161318,"perigee_km":1065.521288989,"apogee_km":1636.0310132385,"semimajor_km":7728.9131511137,"source":"CELESTRAK","updated_at":"2026-09-20T09:00:32.394649Z"}}}